KE7WWT-1 Weather Reports


time (UTC)temp
C
wind
direction
speed
KPH
gust
KPH
rain 1hr
cm
rain 24hr
cm
rain mn
cm
humidity
%
barometer
mb
20260510011555 12 254 0.0 1.6 0.00 0.00 0.00 74 1002.1
20260510011055 12 256 0.0 1.6 0.00 0.00 0.00 74 1001.7
20260510010555 12 257 0.0 3.2 0.00 0.00 0.00 74 1001.7
20260510010055 12 253 0.0 0.0 0.00 0.00 0.00 73 1001.7
20260510005555 12 253 0.0 1.6 0.00 0.00 0.00 72 1001.9
20260510005057 12 253 0.0 1.6 0.00 0.00 0.00 72 1001.9
20260510004555 12 252 0.0 0.0 0.00 0.00 0.00 71 1001.9
20260510004055 12 252 0.0 0.0 0.00 0.00 0.00 70 1001.9
20260510003555 12 252 0.0 0.0 0.00 0.00 0.00 70 1001.9
20260510003055 13 252 0.0 0.0 0.00 0.00 0.00 69 1001.9
20260510002555 13 252 0.0 0.0 0.00 0.00 0.00 69 1001.8
20260510002055 13 252 0.0 0.0 0.00 0.00 0.00 68 1001.8
20260510001555 13 252 0.0 0.0 0.00 0.00 0.00 68 1001.8
20260510001057 13 252 0.0 0.0 0.00 0.00 0.00 67 1001.8
20260510000555 13 284 0.0 1.6 0.00 0.00 0.00 67 1001.8
20260510000055 13 284 0.0 1.6 0.00 0.00 0.00 67 1001.8
20260509235555 13 283 0.0 1.6 0.00 0.00 0.00 66 1002.2
20260509235055 14 281 0.0 1.6 0.00 0.00 0.00 66 1002.2
20260509234555 14 281 0.0 1.6 0.00 0.00 0.00 65 1002.2
20260509234055 14 279 0.0 3.2 0.00 0.00 0.00 64 1002.5
20260509233555 15 280 0.0 0.0 0.00 0.00 0.00 64 1002.5
20260509233057 15 272 0.0 1.6 0.00 0.00 0.00 63 1002.5
20260509232556 15 272 0.0 1.6 0.00 0.00 0.00 61 1002.2
20260509232055 15 272 0.0 1.6 0.00 0.00 0.00 61 1002.2
20260509231556 15 272 0.0 6.4 0.00 0.00 0.00 60 1002.2
20260509231056 15 264 0.0 3.2 0.00 0.00 0.00 60 1002.3
20260509230556 16 263 0.0 8.0 0.00 0.00 0.00 60 1002.3
20260509230056 16 250 0.0 1.6 0.00 0.00 0.00 60 1002.3
20260509225556 16 250 0.0 6.4 0.00 0.00 0.00 58 1002.2
20260509225058 16 265 0.0 1.6 0.00 0.00 0.00 57 1002.2
20260509224556 16 264 0.0 1.6 0.00 0.00 0.00 56 1002.2
20260509224056 16 264 0.0 3.2 0.00 0.00 0.00 56 1002.4
20260509223556 16 249 0.0 8.0 0.00 0.00 0.00 56 1002.4
20260509223056 16 279 0.0 1.6 0.00 0.00 0.00 56 1002.4
20260509222556 16 287 0.0 6.4 0.00 0.00 0.00 55 1002.5
20260509222056 17 283 0.0 1.6 0.00 0.00 0.00 55 1002.5
20260509221556 17 283 0.0 1.6 0.00 0.00 0.00 55 1002.5
20260509221058 17 262 0.0 4.8 0.00 0.00 0.00 53 1002.4
20260509220556 17 267 0.0 4.8 0.00 0.00 0.00 52 1002.4
20260509220056 18 288 0.0 6.4 0.00 0.00 0.00 52 1002.4
20260509215556 18 269 0.0 8.0 0.00 0.00 0.00 52 1002.4
20260509215056 18 290 0.0 3.2 0.00 0.00 0.00 52 1002.4
20260509214556 18 264 0.0 3.2 0.00 0.00 0.00 52 1002.4
20260509214056 18 271 1.6 6.4 0.00 0.00 0.00 52 1002.7
20260509213556 18 8 1.6 11.3 0.00 0.00 0.00 52 1002.7
20260509213058 18 265 1.6 11.3 0.00 0.00 0.00 52 1002.7
20260509212556 17 265 1.6 9.7 0.00 0.00 0.00 54 1003.0
20260509212056 17 233 0.0 6.4 0.00 0.00 0.00 54 1003.0
20260509211556 17 256 0.0 6.4 0.00 0.00 0.00 54 1003.0
20260509211058 18 266 0.0 9.7 0.00 0.00 0.00 51 1002.9
20260509210556 18 275 0.0 3.2 0.00 0.00 0.00 53 1002.9
20260509210056 18 268 0.0 3.2 0.00 0.00 0.00 53 1002.9
20260509205556 18 300 0.0 9.7 0.00 0.00 0.00 52 1002.9
20260509205056 18 297 0.0 1.6 0.00 0.00 0.00 55 1002.9
20260509204556 18 187 0.0 1.6 0.00 0.00 0.00 55 1002.9
20260509204056 17 10 0.0 1.6 0.00 0.00 0.00 55 1003.1
20260509203556 17 128 0.0 6.4 0.00 0.00 0.00 55 1003.1
20260509203058 17 227 0.0 3.2 0.00 0.00 0.00 57 1003.1
20260509202556 17 271 0.0 3.2 0.00 0.00 0.00 57 1003.3
20260509202056 17 270 0.0 4.8 0.00 0.00 0.00 58 1003.3
20260509201556 17 271 0.0 1.6 0.00 0.00 0.00 57 1003.3
20260509201056 17 271 0.0 1.6 0.00 0.00 0.00 58 1003.6
20260509200556 17 284 0.0 1.6 0.00 0.00 0.00 56 1003.6
20260509200056 17 283 0.0 8.0 0.00 0.00 0.00 58 1003.6
20260509195556 17 310 0.0 12.9 0.00 0.00 0.00 58 1003.6
20260509195058 17 86 0.0 3.2 0.00 0.00 0.00 59 1003.6
20260509194556 17 278 0.0 4.8 0.00 0.00 0.00 55 1003.6
20260509194056 17 258 1.6 6.4 0.00 0.00 0.00 57 1003.6
20260509193556 17 281 0.0 11.3 0.00 0.00 0.00 56 1003.6
20260509193056 17 347 0.0 6.4 0.00 0.00 0.00 57 1003.6
20260509192556 17 285 0.0 14.5 0.00 0.00 0.00 54 1003.8
20260509192056 17 316 0.0 4.8 0.00 0.00 0.00 58 1003.8
20260509191556 17 271 0.0 6.4 0.00 0.00 0.00 55 1003.8
20260509191058 17 345 0.0 6.4 0.00 0.00 0.00 57 1003.8
20260509190556 18 286 0.0 6.4 0.00 0.00 0.00 54 1003.8
20260509190056 18 296 0.0 3.2 0.00 0.00 0.00 50 1003.8
20260509185556 18 281 0.0 8.0 0.00 0.00 0.00 49 1003.7
20260509185056 19 45 1.6 8.0 0.00 0.00 0.00 45 1003.7
20260509184556 19 297 3.2 14.5 0.00 0.00 0.00 46 1003.7
20260509184056 18 275 1.6 9.7 0.00 0.00 0.00 47 1003.8
20260509183556 18 285 0.0 1.6 0.00 0.00 0.00 46 1003.8
20260509183058 18 281 0.0 1.6 0.00 0.00 0.00 49 1003.8
20260509182556 18 274 0.0 1.6 0.00 0.00 0.00 45 1003.8
20260509182056 18 274 0.0 4.8 0.00 0.00 0.00 46 1003.8
20260509181556 18 38 0.0 3.2 0.00 0.00 0.00 46 1003.8
20260509181056 18 25 0.0 1.6 0.00 0.00 0.00 44 1003.8
20260509180556 18 134 0.0 1.6 0.00 0.00 0.00 44 1003.8
20260509180056 18 284 0.0 6.4 0.00 0.00 0.00 44 1003.8
20260509175556 18 288 0.0 8.0 0.00 0.00 0.00 46 1003.9
20260509175058 18 276 0.0 6.4 0.00 0.00 0.00 45 1003.9
20260509174556 18 306 0.0 3.2 0.00 0.00 0.00 46 1003.9
20260509174056 18 262 0.0 1.6 0.00 0.00 0.00 43 1004.1
20260509173556 18 257 0.0 6.4 0.00 0.00 0.00 47 1004.1
20260509173056 18 290 0.0 1.6 0.00 0.00 0.00 41 1004.1
20260509172556 18 290 0.0 6.4 0.00 0.00 0.00 46 1004.5
20260509172056 18 254 0.0 6.4 0.00 0.00 0.00 47 1004.5
20260509171556 18 290 0.0 8.0 0.00 0.00 0.00 47 1004.5
20260509171058 18 264 0.0 8.0 0.00 0.00 0.00 50 1004.7
20260509170556 17 300 0.0 3.2 0.00 0.00 0.00 46 1004.7
20260509170056 17 304 0.0 8.0 0.00 0.00 0.00 52 1004.7
20260509165556 17 300 0.0 3.2 0.00 0.00 0.00 49 1004.8
20260509165056 17 85 0.0 3.2 0.00 0.00 0.00 48 1004.8
20260509164556 17 286 0.0 3.2 0.00 0.00 0.00 51 1004.8
20260509164056 17 253 0.0 11.3 0.00 0.00 0.00 51 1005.0
20260509163556 17 262 1.6 11.3 0.00 0.00 0.00 51 1005.0
20260509163058 17 302 0.0 8.0 0.00 0.00 0.00 52 1005.0
20260509162556 17 278 0.0 8.0 0.00 0.00 0.00 50 1005.2
20260509162056 16 314 0.0 3.2 0.00 0.00 0.00 54 1005.2
20260509161556 16 300 0.0 3.2 0.00 0.00 0.00 52 1005.2
20260509161058 16 268 1.6 6.4 0.00 0.00 0.00 52 1005.6
20260509160556 16 304 1.6 9.7 0.00 0.00 0.00 54 1005.6
20260509160056 16 296 0.0 8.0 0.00 0.00 0.00 54 1005.6
20260509155556 16 285 0.0 3.2 0.00 0.00 0.00 52 1005.7
20260509155056 16 285 0.0 1.6 0.00 0.00 0.00 49 1005.7
20260509154556 17 285 0.0 14.5 0.00 0.00 0.00 49 1005.7
20260509154056 17 263 0.0 9.7 0.00 0.00 0.00 49 1005.7
20260509153556 17 276 0.0 3.2 0.00 0.00 0.00 50 1005.7
20260509153058 17 269 0.0 1.6 0.00 0.00 0.00 51 1005.7
20260509152556 17 290 0.0 3.2 0.00 0.00 0.00 50 1006.0
20260509152056 17 256 0.0 8.0 0.00 0.00 0.00 51 1006.0
20260509151556 17 271 0.0 8.0 0.00 0.00 0.00 48 1006.0
20260509151056 16 281 0.0 1.6 0.00 0.00 0.00 54 1006.1
20260509150556 16 281 0.0 6.4 0.00 0.00 0.00 52 1006.1
20260509150056 16 293 0.0 1.6 0.00 0.00 0.00 52 1006.1
20260509145556 16 267 0.0 1.6 0.00 0.00 0.00 50 1006.2
20260509145058 16 265 0.0 1.6 0.00 0.00 0.00 56 1006.2
20260509144556 16 86 0.0 1.6 0.00 0.00 0.00 56 1006.2
20260509144056 15 109 0.0 1.6 0.00 0.00 0.00 52 1006.2
20260509143556 15 109 0.0 1.6 0.00 0.00 0.00 53 1006.2
20260509143056 15 51 0.0 3.2 0.00 0.00 0.00 56 1006.2
20260509142556 15 88 1.6 4.8 0.00 0.00 0.00 51 1006.3
20260509142056 15 41 0.0 6.4 0.00 0.00 0.00 53 1006.3
20260509141556 15 18 0.0 3.2 0.00 0.00 0.00 53 1006.3
20260509141058 15 295 0.0 3.2 0.00 0.00 0.00 55 1006.6
20260509140556 15 291 0.0 1.6 0.00 0.00 0.00 54 1006.6
20260509140056 15 291 0.0 1.6 0.00 0.00 0.00 52 1006.6
20260509135556 15 291 0.0 1.6 0.00 0.00 0.00 51 1006.7
20260509135056 15 291 0.0 3.2 0.00 0.00 0.00 54 1006.7
20260509134556 15 266 0.0 0.0 0.00 0.00 0.00 51 1006.7
20260509134056 14 265 0.0 1.6 0.00 0.00 0.00 51 1006.7
20260509133556 14 293 0.0 1.6 0.00 0.00 0.00 52 1006.7
20260509133058 14 293 0.0 1.6 0.00 0.00 0.00 53 1006.7
20260509132556 13 171 0.0 1.6 0.00 0.00 0.00 51 1006.8
20260509132056 13 266 0.0 1.6 0.00 0.00 0.00 48 1006.8
20260509131556 13 151 0.0 1.6 0.00 0.00 0.00 47 1006.8
20260509131056 13 61 0.0 1.6 0.00 0.00 0.00 49 1006.8
20260509130556 13 60 0.0 1.6 0.00 0.00 0.00 47 1006.8
20260509130056 13 49 0.0 1.6 0.00 0.00 0.00 46 1006.8
20260509125556 13 40 0.0 4.8 0.00 0.00 0.00 46 1006.9
20260509125058 12 134 0.0 3.2 0.00 0.00 0.00 46 1006.9
20260509124556 12 165 0.0 1.6 0.00 0.00 0.00 46 1006.9
20260509124056 12 129 0.0 1.6 0.00 0.00 0.00 45 1007.2
20260509123556 12 129 0.0 3.2 0.00 0.00 0.00 43 1007.2
20260509123056 12 124 0.0 1.6 0.00 0.00 0.00 40 1007.2
20260509122556 12 53 0.0 8.0 0.00 0.00 0.00 41 1007.2
20260509122056 12 293 0.0 1.6 0.00 0.00 0.00 45 1007.2
20260509121556 11 186 0.0 1.6 0.00 0.00 0.00 44 1007.2
20260509121058 11 186 0.0 1.6 0.00 0.00 0.00 46 1007.3
20260509120556 11 165 0.0 3.2 0.00 0.00 0.00 45 1007.3
20260509120056 11 166 0.0 3.2 0.00 0.00 0.00 45 1007.3
20260509115556 10 75 0.0 3.2 0.00 0.00 0.00 47 1007.4
20260509115056 10 172 0.0 1.6 0.00 0.00 0.00 49 1007.4
20260509114556 10 271 0.0 1.6 0.00 0.00 0.00 53 1007.4
20260509114057 8 270 0.0 1.6 0.00 0.00 0.00 57 1007.3
20260509113556 8 270 0.0 0.0 0.00 0.00 0.00 58 1007.3
20260509113058 7 270 0.0 1.6 0.00 0.00 0.00 59 1007.3
20260509112556 7 270 0.0 0.0 0.00 0.00 0.00 63 1007.4
20260509112057 6 270 0.0 1.6 0.00 0.00 0.00 63 1007.4
20260509111557 6 270 0.0 1.6 0.00 0.00 0.00 64 1007.4
20260509111057 5 270 0.0 0.0 0.00 0.00 0.00 64 1007.5
20260509110557 5 270 0.0 0.0 0.00 0.00 0.00 66 1007.5
20260509110057 4 270 0.0 0.0 0.00 0.00 0.00 67 1007.5
20260509105557 4 270 0.0 0.0 0.00 0.00 0.00 69 1007.5
20260509105059 3 269 0.0 1.6 0.00 0.00 0.00 70 1007.5
20260509104557 3 269 0.0 0.0 0.00 0.00 0.00 69 1007.5
20260509104057 3 269 0.0 1.6 0.00 0.00 0.00 70 1007.4
20260509103557 2 269 0.0 0.0 0.00 0.00 0.00 71 1007.4
20260509103059 2 269 0.0 0.0 0.00 0.00 0.00 72 1007.4
20260509102557 2 269 0.0 0.0 0.00 0.00 0.00 73 1007.3
20260509102057 2 269 0.0 0.0 0.00 0.00 0.00 74 1007.3
20260509101557 2 269 0.0 0.0 0.00 0.00 0.00 75 1007.3
20260509101057 1 269 0.0 0.0 0.00 0.00 0.00 76 1007.4
20260509100557 1 269 0.0 0.0 0.00 0.00 0.00 78 1007.4
20260509100057 1 269 0.0 0.0 0.00 0.00 0.00 78 1007.4
20260509095557 1 269 0.0 0.0 0.00 0.00 0.00 79 1007.4
20260509095059 1 269 0.0 0.0 0.00 0.00 0.00 79 1007.4
20260509094557 1 269 0.0 0.0 0.00 0.00 0.00 80 1007.4
20260509094057 0 269 0.0 0.0 0.00 0.00 0.00 81 1007.5
20260509093557 0 269 0.0 0.0 0.00 0.00 0.00 83 1007.5
20260509093057 0 269 0.0 0.0 0.00 0.00 0.00 84 1007.5
20260509092557 -1 269 0.0 0.0 0.00 0.00 0.00 83 1007.7
20260509092057 -1 269 0.0 0.0 0.00 0.00 0.00 82 1007.7
20260509091557 -1 269 0.0 0.0 0.00 0.00 0.00 81 1007.7
20260509091059 -1 269 0.0 0.0 0.00 0.00 0.00 81 1007.8
20260509090557 0 269 0.0 0.0 0.00 0.00 0.00 81 1007.8
20260509090057 0 269 0.0 0.0 0.00 0.00 0.00 81 1007.8
20260509085557 0 269 0.0 0.0 0.00 0.00 0.00 81 1007.9
20260509085057 0 269 0.0 0.0 0.00 0.00 0.00 81 1007.9
20260509084557 0 269 0.0 0.0 0.00 0.00 0.00 81 1007.9
20260509084057 0 269 0.0 0.0 0.00 0.00 0.00 81 1007.9
20260509083557 0 269 0.0 0.0 0.00 0.00 0.00 81 1007.9
20260509083059 0 269 0.0 0.0 0.00 0.00 0.00 81 1007.9
20260509082557 0 269 0.0 0.0 0.00 0.00 0.00 80 1007.9
20260509082057 0 269 0.0 0.0 0.00 0.00 0.00 80 1007.9
20260509081557 0 269 0.0 0.0 0.00 0.00 0.00 79 1007.9
20260509081057 1 269 0.0 0.0 0.00 0.00 0.00 80 1008.0
20260509080557 0 269 0.0 0.0 0.00 0.00 0.00 80 1008.0
20260509080057 0 269 0.0 0.0 0.00 0.00 0.00 79 1008.0
20260509075557 0 269 0.0 0.0 0.00 0.00 0.00 78 1008.0
20260509075059 0 269 0.0 0.0 0.00 0.00 0.00 78 1008.0
20260509074557 1 269 0.0 0.0 0.00 0.00 0.00 77 1008.0
20260509074057 1 269 0.0 0.0 0.00 0.00 0.00 77 1008.1
20260509073557 1 269 0.0 0.0 0.00 0.00 0.00 77 1008.1
20260509073057 1 269 0.0 0.0 0.00 0.00 0.00 76 1008.1
20260509072557 2 269 0.0 0.0 0.00 0.00 0.00 76 1008.0
20260509072057 2 269 0.0 0.0 0.00 0.00 0.00 75 1008.0
20260509071557 2 269 0.0 0.0 0.00 0.00 0.00 73 1008.0
20260509071059 2 269 0.0 0.0 0.00 0.00 0.00 73 1007.9
20260509070557 2 269 0.0 0.0 0.00 0.00 0.00 73 1007.9
20260509070057 2 269 0.0 0.0 0.00 0.00 0.00 74 1007.9
20260509065557 2 269 0.0 0.0 0.00 0.00 0.00 75 1008.0
20260509065057 2 269 0.0 0.0 0.00 0.00 0.00 75 1008.0
20260509064557 2 269 0.0 0.0 0.00 0.00 0.00 75 1008.0
20260509064057 2 269 0.0 0.0 0.00 0.00 0.00 74 1008.3
20260509063557 2 269 0.0 0.0 0.00 0.00 0.00 72 1008.3
20260509063058 2 269 0.0 0.0 0.00 0.00 0.00 73 1008.3
20260509062557 2 269 0.0 0.0 0.00 0.00 0.00 74 1008.3
20260509062057 2 269 0.0 0.0 0.00 0.00 0.00 74 1008.3
20260509061557 1 269 0.0 0.0 0.00 0.00 0.00 75 1008.3
20260509061057 1 269 0.0 0.0 0.00 0.00 0.00 76 1008.5
20260509060557 1 269 0.0 0.0 0.00 0.00 0.00 76 1008.5
20260509060057 1 269 0.0 0.0 0.00 0.00 0.00 76 1008.5
20260509055557 1 269 0.0 0.0 0.00 0.00 0.00 77 1008.7
20260509055059 1 269 0.0 0.0 0.00 0.00 0.00 78 1008.7
20260509054557 1 269 0.0 0.0 0.00 0.00 0.00 79 1008.7
20260509054057 0 269 0.0 0.0 0.00 0.00 0.00 80 1009.0
20260509053557 0 269 0.0 1.6 0.00 0.00 0.00 81 1009.0
20260509053059 0 269 0.0 0.0 0.00 0.00 0.00 82 1009.0
20260509052557 0 269 0.0 0.0 0.00 0.00 0.00 82 1009.0
20260509052057 0 269 0.0 0.0 0.00 0.00 0.00 82 1009.0
20260509051557 0 269 0.0 0.0 0.00 0.00 0.00 82 1009.0
20260509051057 0 269 0.0 0.0 0.00 0.00 0.00 82 1009.0
20260509050557 0 269 0.0 0.0 0.00 0.00 0.00 81 1009.0
20260509050057 0 269 0.0 0.0 0.00 0.00 0.00 81 1009.0
20260509045557 0 269 0.0 0.0 0.00 0.00 0.00 81 1009.2
20260509045059 0 269 0.0 0.0 0.00 0.00 0.00 81 1009.2
20260509044557 0 269 0.0 0.0 0.00 0.00 0.00 81 1009.2
20260509044057 0 269 0.0 0.0 0.00 0.00 0.00 81 1009.3
20260509043557 0 269 0.0 0.0 0.00 0.00 0.00 81 1009.3
20260509043057 0 269 0.0 0.0 0.00 0.00 0.00 81 1009.3
20260509042557 0 269 0.0 0.0 0.00 0.00 0.00 81 1009.3
20260509042057 0 269 0.0 0.0 0.00 0.00 0.00 81 1009.3
20260509041557 0 269 0.0 0.0 0.00 0.00 0.00 81 1009.3
20260509041059 0 269 0.0 0.0 0.00 0.00 0.00 81 1009.1
20260509040557 0 269 0.0 0.0 0.00 0.00 0.00 81 1009.1
20260509040057 0 269 0.0 0.0 0.00 0.00 0.00 81 1009.1
20260509035557 0 269 0.0 0.0 0.00 0.00 0.00 80 1009.1
20260509035057 0 269 0.0 0.0 0.00 0.00 0.00 80 1009.1
20260509034557 0 269 0.0 0.0 0.00 0.00 0.00 80 1009.1
20260509034057 0 269 0.0 0.0 0.00 0.00 0.00 80 1009.1
20260509033557 0 269 0.0 0.0 0.00 0.00 0.00 80 1009.1
20260509033059 1 269 0.0 0.0 0.00 0.00 0.00 80 1009.1
20260509032557 1 269 0.0 0.0 0.00 0.00 0.00 80 1009.2
20260509032057 1 269 0.0 0.0 0.00 0.00 0.00 80 1009.2
20260509031557 1 269 0.0 0.0 0.00 0.00 0.00 80 1009.2
20260509031057 1 269 0.0 0.0 0.00 0.00 0.00 80 1009.4
20260509030557 1 269 0.0 0.0 0.00 0.00 0.00 80 1009.4
20260509030057 1 269 0.0 0.0 0.00 0.00 0.00 80 1009.4
20260509025557 1 269 0.0 0.0 0.00 0.00 0.00 80 1009.6
20260509025059 1 269 0.0 0.0 0.00 0.00 0.00 80 1009.6
20260509024557 1 269 0.0 0.0 0.00 0.00 0.00 79 1009.6
20260509024057 1 269 0.0 0.0 0.00 0.00 0.00 79 1009.6
20260509023557 1 269 0.0 0.0 0.00 0.00 0.00 78 1009.6
20260509023057 1 269 0.0 0.0 0.00 0.00 0.00 77 1009.6
20260509022557 1 269 0.0 0.0 0.00 0.00 0.00 76 1009.7
20260509022057 1 269 0.0 0.0 0.00 0.00 0.00 75 1009.7
20260509021557 1 269 0.0 0.0 0.00 0.00 0.00 74 1009.7
20260509021059 1 269 0.0 0.0 0.00 0.00 0.00 73 1009.6
20260509020557 2 269 0.0 0.0 0.00 0.00 0.00 72 1009.6
20260509020057 2 269 0.0 0.0 0.00 0.00 0.00 71 1009.6
20260509015557 2 269 0.0 0.0 0.00 0.00 0.00 71 1009.5
20260509015057 2 269 0.0 0.0 0.00 0.00 0.00 70 1009.5
20260509014557 2 269 0.0 0.0 0.00 0.00 0.00 69 1009.5
20260509014057 2 269 0.0 0.0 0.00 0.00 0.00 69 1009.5
20260509013557 3 269 0.0 0.0 0.00 0.00 0.00 68 1009.5
20260509013059 3 269 0.0 0.0 0.00 0.00 0.00 67 1009.5
20260509012557 3 269 0.0 0.0 0.00 0.00 0.00 67 1009.2
20260509012057 3 269 0.0 0.0 0.00 0.00 0.00 67 1009.2